Weather reports worldwide

Advertisment
L9F, Netherlands (6207): temperature & dewpoint: 09.12.2019 00:00:00 - 15.12.2019 00:00:00 (CET)L9F, Netherlands (6207): wind speed & gusts: 09.12.2019 00:00:00 - 15.12.2019 00:00:00 (CET)L9F, Netherlands (6207): wind direction: 09.12.2019 00:00:00 - 15.12.2019 00:00:00 (CET)L9F, Netherlands (6207): reduced air pressure: 09.12.2019 00:00:00 - 15.12.2019 00:00:00 (CET)L9F, Netherlands (6207): visibility: 09.12.2019 00:00:00 - 15.12.2019 00:00:00 (CET)
Date & Time tt [°C] td [°C] ff [km/h] ff [kn] fx [km/h] fx [kn] dd ppp [hPa] vv [km]
15.12.2019 00:00:00 9,0 2,0 55 30 - - SW 992,0 10
14.12.2019 23:00:00 8,0 1,1 57 31 61 33 WSW 992,2 10
14.12.2019 22:00:00 7,5 1,2 59 32 61 33 WSW 991,7 10
14.12.2019 21:00:00 7,5 1,2 59 32 65 35 W 991,4 10
14.12.2019 20:00:00 7,4 1,2 70 38 72 39 W 990,3 10
14.12.2019 19:00:00 7,6 1,4 63 34 68 37 WSW 988,9 10
14.12.2019 18:00:00 7,1 2,7 61 33 76 41 W 987,6 10
14.12.2019 17:00:00 7,6 3,5 63 34 65 35 WSW 986,8 4,9
14.12.2019 16:00:00 7,9 2,6 57 31 61 33 WSW 986,0 10
14.12.2019 15:00:00 7,9 2,2 61 33 68 37 W 985,4 10
14.12.2019 14:00:00 7,5 2,6 76 41 76 41 WSW 984,2 3,4
14.12.2019 13:00:00 7,6 1,9 67 36 68 37 W 984,0 10
14.12.2019 12:00:00 6,8 2,5 68 37 72 39 W 982,9 10
14.12.2019 11:00:00 7,3 2,4 70 38 72 39 W 982,2 10
14.12.2019 10:00:00 7,7 2,3 68 37 76 41 WSW 981,1 10
14.12.2019 09:00:00 7,8 3,2 65 35 65 35 W 980,0 10
14.12.2019 08:00:00 7,6 3,5 61 33 65 35 W 979,2 10
14.12.2019 07:00:00 8,0 3,5 57 31 58 31 WSW 978,2 10
14.12.2019 06:00:00 7,9 4,3 52 28 58 31 WSW 977,6 10
14.12.2019 05:00:00 6,2 4,4 50 27 50 27 W 977,8 4,0
14.12.2019 04:00:00 7,1 4,3 50 27 47 25 WSW 977,5 10
14.12.2019 03:00:00 7,3 4,7 46 25 50 27 WSW 977,7 10
14.12.2019 02:00:00 7,8 4,2 54 29 54 29 WSW 977,8 10
14.12.2019 01:00:00 8,0 4,7 44 24 47 25 WSW 978,2 10
14.12.2019 00:00:00 7,8 5,1 52 28 50 27 WSW 978,4 7
13.12.2019 23:00:00 7,8 4,6 41 22 47 25 WSW 978,8 10
13.12.2019 22:00:00 8,2 5,6 46 25 43 23 WSW 979,0 10
13.12.2019 21:00:00 8,3 5,6 29 16 43 23 W 979,4 8
13.12.2019 20:00:00 7,3 4,9 32 18 47 25 W 979,9 4,9
13.12.2019 19:00:00 7,4 5,0 31 17 29 16 WSW 979,9 10
13.12.2019 18:00:00 8,0 4,7 26 14 36 19 WSW 979,5 10
13.12.2019 17:00:00 6,4 5,7 28 15 32 18 SSW 979,6 10
13.12.2019 16:00:00 6,0 4,7 21 11 22 12 SSW 979,0 10
13.12.2019 15:00:00 5,8 4,6 18 10 25 14 SSW 978,1 8
13.12.2019 14:00:00 5,4 4,1 21 11 25 14 SSW 977,8 10
13.12.2019 13:00:00 4,9 3,6 24 13 25 14 S 977,3 10
13.12.2019 12:00:00 4,9 3,6 24 13 29 16 - 976,8 10
13.12.2019 11:00:00 4,7 3,5 28 15 32 18 - 976,4 10
13.12.2019 10:00:00 4,3 3,2 35 19 40 21 SSE 975,5 10
13.12.2019 09:00:00 4,1 3,0 39 21 43 23 SSE 974,8 10
13.12.2019 08:00:00 4,3 3,3 46 25 50 27 SSE 974,6 10
13.12.2019 07:00:00 4,4 3,4 52 28 61 33 SSE 974,3 10
13.12.2019 06:00:00 4,7 3,6 57 31 72 39 - 974,1 10
13.12.2019 05:00:00 4,9 3,4 76 41 83 45 - 974,2 10
13.12.2019 04:00:00 5,1 3,5 74 40 86 47 - 974,7 10
13.12.2019 03:00:00 5,0 3,0 78 42 79 43 SSE 975,2 10
13.12.2019 02:00:00 5,1 2,6 61 33 76 41 SSE 976,3 21
13.12.2019 01:00:00 5,4 2,3 72 39 76 41 SSE 978,1 10
13.12.2019 00:00:00 5,4 2,6 68 37 76 41 SSE 980,0 10
12.12.2019 23:00:00 5,6 3,3 80 43 83 45 - 981,9 10
12.12.2019 22:00:00 5,2 3,3 83 45 83 45 S 983,8 7
12.12.2019 21:00:00 5,6 2,4 80 43 83 45 S 985,2 10
12.12.2019 20:00:00 5,4 2,7 76 41 79 43 - 986,7 10
12.12.2019 19:00:00 5,6 2,9 72 39 76 41 - 988,4 10
12.12.2019 18:00:00 5,8 3,3 70 38 68 37 S 990,0 10
12.12.2019 17:00:00 5,7 3,2 59 32 61 33 S 991,6 10
12.12.2019 16:00:00 5,7 3,0 48 26 54 29 S 992,9 10
12.12.2019 15:00:00 6,3 2,9 55 30 58 31 S 994,1 10
12.12.2019 14:00:00 6,8 3,9 55 30 58 31 S 994,8 10
12.12.2019 13:00:00 7,4 1,9 46 25 50 27 SW 995,8 10
12.12.2019 12:00:00 7,4 0,9 44 24 47 25 SSW 997,0 10
12.12.2019 11:00:00 7,3 1,0 37 20 40 21 SW 997,7 10
12.12.2019 10:00:00 7,0 1,6 35 19 43 23 SW 998,2 10
12.12.2019 09:00:00 7,1 2,0 39 21 43 23 SW 998,4 10
12.12.2019 08:00:00 7,2 1,6 35 19 36 19 WSW 998,5 10
12.12.2019 07:00:00 7,3 2,3 35 19 36 19 WSW 998,5 10
12.12.2019 06:00:00 7,3 3,2 31 17 36 19 W 998,4 10
12.12.2019 05:00:00 7,3 2,7 29 16 32 18 W 998,6 10
12.12.2019 04:00:00 7,6 3,4 28 15 29 16 WSW 998,6 10
12.12.2019 03:00:00 7,4 4,3 34 18 36 19 WSW 998,9 10
12.12.2019 02:00:00 6,4 4,3 28 15 40 21 WSW 999,2 6
12.12.2019 01:00:00 7,1 5,1 26 14 47 25 SW 999,7 10
12.12.2019 00:00:00 7,4 5,9 48 26 50 27 SSW 1000,5 9
11.12.2019 23:00:00 7,6 5,8 44 24 47 25 SSW 1000,9 10
11.12.2019 22:00:00 7,5 6,2 44 24 47 25 S 1001,6 10
11.12.2019 21:00:00 7,7 5,6 34 18 40 21 S 1001,9 10
11.12.2019 20:00:00 8,7 3,3 37 20 40 21 SW 1001,9 10
11.12.2019 19:00:00 8,5 2,7 37 20 36 19 SSW 1002,3 10
11.12.2019 18:00:00 8,5 2,5 35 19 36 19 SW 1002,4 10
11.12.2019 17:00:00 8,4 1,9 34 18 40 21 SW 1002,8 10
11.12.2019 16:00:00 8,4 2,7 34 18 40 21 SW 1002,9 10
11.12.2019 15:00:00 8,4 2,9 35 19 36 19 SW 1003,4 10
11.12.2019 14:00:00 8,5 2,5 37 20 40 21 SW 1003,9 10
11.12.2019 13:00:00 8,3 2,8 37 20 36 19 SW 1004,8 10
11.12.2019 12:00:00 8,4 3,5 34 18 32 18 SW 1005,4 10
11.12.2019 11:00:00 8,3 3,3 26 14 29 16 WSW 1005,9 10
11.12.2019 10:00:00 8,2 3,8 26 14 29 16 WSW 1006,1 10
11.12.2019 09:00:00 8,1 3,8 31 17 36 19 WSW 1006,0 10
11.12.2019 08:00:00 8,4 4,0 34 18 40 21 WSW 1005,9 10
11.12.2019 07:00:00 8,7 4,3 35 19 40 21 WSW 1006,0 10
11.12.2019 06:00:00 8,7 3,6 42 23 43 23 WSW 1005,8 10
11.12.2019 05:00:00 8,8 4,4 44 24 43 23 W 1005,6 10
11.12.2019 04:00:00 9,4 4,8 42 23 43 23 W 1005,3 10
11.12.2019 03:00:00 9,6 6,0 42 23 50 27 WSW 1004,7 10
11.12.2019 02:00:00 9,1 7,2 44 24 94 51 WSW 1004,5 6
11.12.2019 01:00:00 8,7 8,0 89 48 90 49 SSW 1003,6 3,1
11.12.2019 00:00:00 8,8 6,8 87 47 94 51 SSW 1004,4 8
10.12.2019 23:00:00 8,7 6,3 93 50 97 53 SSW 1004,7 9
10.12.2019 22:00:00 8,3 5,9 94 51 97 53 SSW 1005,7 10
10.12.2019 21:00:00 8,2 5,3 94 51 94 51 SSW 1006,6 10
10.12.2019 20:00:00 7,7 5,1 85 46 90 49 SSW 1007,6 10
10.12.2019 19:00:00 7,3 5,0 85 46 90 49 SSW 1008,6 -
10.12.2019 18:00:00 7,2 4,5 81 44 86 47 S 1009,9 -
10.12.2019 17:00:00 7,2 3,7 76 41 76 41 S 1011,4 10
10.12.2019 16:00:00 7,2 4,1 78 42 79 43 S 1013,0 10
10.12.2019 15:00:00 7,4 4,3 78 42 76 41 SSW 1014,7 10
10.12.2019 14:00:00 7,5 4,8 70 38 72 39 SSW 1016,1 10
10.12.2019 13:00:00 7,9 4,1 68 37 68 37 SSW 1017,5 10
10.12.2019 12:00:00 8,1 3,6 65 35 65 35 SSW 1018,9 10
10.12.2019 11:00:00 8,1 2,8 63 34 61 33 SSW 1019,9 10
10.12.2019 10:00:00 7,9 1,7 55 30 54 29 SSW 1020,9 10
10.12.2019 09:00:00 8,0 2,2 42 23 47 25 SW 1021,1 10
10.12.2019 08:00:00 8,1 2,0 28 15 32 18 SW 1021,1 10
10.12.2019 07:00:00 7,9 1,0 28 15 29 16 WSW 1021,8 10
10.12.2019 06:00:00 8,1 0,4 16 9 25 14 W 1021,7 10
10.12.2019 05:00:00 8,0 -0,2 21 11 29 16 WNW 1021,8 10
10.12.2019 04:00:00 7,8 -2,0 31 17 40 21 WNW 1021,7 10
10.12.2019 03:00:00 7,7 -1,1 39 21 47 25 NW 1021,4 10
10.12.2019 02:00:00 7,8 -3,6 44 24 47 25 NW 1020,6 10
10.12.2019 01:00:00 7,8 -1,8 46 25 50 27 NW 1019,8 10
10.12.2019 00:00:00 8,0 -1,5 55 30 58 31 NW 1018,9 10
09.12.2019 23:00:00 7,7 0,0 59 32 61 33 NNW 1018,0 10
09.12.2019 22:00:00 8,0 -1,5 61 33 65 35 NW 1016,8 10
09.12.2019 21:00:00 8,0 0,7 63 34 68 37 NNW 1015,4 10
09.12.2019 20:00:00 8,0 -0,1 72 39 83 45 NW 1013,8 10
09.12.2019 19:00:00 7,7 1,7 76 41 76 41 NNW 1012,0 10
09.12.2019 18:00:00 8,1 1,7 67 36 79 43 NNW 1010,3 10
09.12.2019 17:00:00 8,1 2,8 70 38 76 41 NW 1008,4 10
09.12.2019 16:00:00 8,6 0,6 76 41 79 43 NNW 1006,0 10
09.12.2019 15:00:00 9,0 2,0 74 40 76 41 NNW 1003,7 10
09.12.2019 14:00:00 9,1 2,8 72 39 79 43 NNW 1001,0 10
09.12.2019 13:00:00 8,2 4,5 59 32 72 39 N 998,8 10
09.12.2019 12:00:00 9,1 4,6 42 23 47 25 NNW 996,8 10
09.12.2019 11:00:00 8,8 5,4 39 21 47 25 NW 995,2 10
09.12.2019 10:00:00 8,3 4,4 39 21 54 29 - 993,6 10
09.12.2019 09:00:00 8,1 4,0 31 17 40 21 W 992,4 10
09.12.2019 08:00:00 8,5 5,3 39 21 40 21 W 991,1 10
09.12.2019 07:00:00 8,1 5,1 41 22 43 23 W 990,6 7
09.12.2019 06:00:00 8,7 4,7 41 22 47 25 WSW 989,9 10
09.12.2019 05:00:00 8,6 4,1 50 27 58 31 WSW 989,5 10
09.12.2019 04:00:00 8,9 4,3 57 31 58 31 SW 989,7 10
09.12.2019 03:00:00 9,0 4,4 55 30 58 31 WSW 990,1 10
09.12.2019 02:00:00 8,8 4,0 63 34 65 35 WSW 990,4 10
09.12.2019 01:00:00 8,9 3,7 63 34 65 35 WSW 990,4 10
09.12.2019 00:00:00 8,9 3,5 63 34 65 35 WSW 990,7 10

tt = temperature
td = dewpoint
ff = wind speed
fx = gusts
dd = wind direction
ppp = reduced air pressure
vv = visibility

Next stations